FW8870 Weather Reports


Display with metric or nautical units.
time (UTC)temp
F
wind
direction
speed
MPH
gust
MPH
rain 1hr
in
rain 24hr
in
rain mn
in
humidity
%
barometer
mb
20260509123946 50 323 0.0 0.0 0.00 0.00 0.00 93 1025.3
20260509123444 50 323 0.0 0.0 0.00 0.00 0.00 93 1025.2
20260509122939 50 336 0.0 0.0 0.00 0.00 0.00 92 1025.3
20260509122437 50 316 0.0 0.0 0.00 0.00 0.00 92 1025.3
20260509121933 50 322 0.0 0.0 0.00 0.00 0.00 92 1025.2
20260509121430 50 335 0.0 0.0 0.00 0.00 0.00 92 1025.5
20260509120928 50 341 0.0 0.0 0.00 0.00 0.00 92 1025.0
20260509120426 50 293 0.0 0.0 0.00 0.00 0.00 93 1025.1
20260509115924 50 294 0.0 0.0 0.00 0.00 0.00 93 1025.1
20260509115421 50 289 0.0 0.0 0.00 0.00 0.00 93 1025.1
20260509114918 50 270 0.0 0.0 0.00 0.00 0.00 93 1025.2
20260509114417 50 167 0.0 0.0 0.00 0.00 0.00 93 1025.2
20260509113916 50 163 0.0 0.0 0.00 0.00 0.00 92 1024.9
20260509113413 50 294 0.0 0.0 0.00 0.00 0.00 92 1025.1
20260509112909 51 262 0.0 0.0 0.00 0.00 0.00 92 1025.0
20260509112407 50 8 0.0 0.0 0.00 0.00 0.00 92 1025.0
20260509111904 50 342 0.0 0.0 0.00 0.00 0.00 92 1025.1
20260509111400 50 323 0.0 0.0 0.00 0.00 0.00 93 1025.0
20260509110858 50 323 0.0 0.0 0.00 0.00 0.00 92 1025.1
20260509110354 50 355 0.0 0.0 0.00 0.00 0.00 93 1025.0
20260509105852 50 358 0.0 0.0 0.00 0.00 0.00 92 1025.0
20260509105350 51 318 0.0 0.0 0.00 0.00 0.00 92 1025.0
20260509104847 50 237 0.0 0.0 0.00 0.00 0.00 92 1025.1
20260509104343 50 283 0.0 0.0 0.00 0.00 0.00 93 1025.2
20260509103841 50 43 0.0 0.0 0.00 0.00 0.00 93 1025.2
20260509103338 50 299 0.0 0.0 0.00 0.00 0.00 93 1025.2
20260509102837 50 318 0.0 0.0 0.00 0.00 0.00 94 1025.0
20260509102334 50 247 0.0 0.0 0.00 0.00 0.00 94 1024.9
20260509101829 51 287 0.0 0.0 0.00 0.00 0.00 93 1025.0
20260509101326 51 312 0.0 0.0 0.00 0.00 0.00 92 1025.1
20260509100824 51 317 0.0 0.0 0.00 0.00 0.00 92 1025.0
20260509100321 51 339 0.0 0.0 0.00 0.00 0.00 92 1025.0
20260509095817 50 335 0.0 0.0 0.00 0.00 0.00 94 1025.0
20260509095315 50 320 0.0 0.0 0.00 0.00 0.00 95 1024.9
20260509094812 50 323 0.0 0.0 0.00 0.00 0.00 95 1024.9
20260509094308 50 304 0.0 0.0 0.00 0.00 0.00 95 1024.8
20260509093806 49 339 0.0 0.0 0.00 0.00 0.00 95 1024.9
20260509093303 49 339 0.0 0.0 0.00 0.00 0.00 95 1024.9
20260509092802 49 339 0.0 0.0 0.00 0.00 0.00 97 1024.7
20260509092259 49 338 0.0 0.0 0.00 0.00 0.00 97 1024.9
20260509091757 48 339 0.0 0.0 0.00 0.00 0.00 98 1024.9
20260509091253 48 323 0.0 0.0 0.00 0.00 0.00 99 1025.1
20260509090751 48 324 0.0 0.0 0.00 0.00 0.00 98 1025.1
20260509090248 48 324 0.0 0.0 0.00 0.00 0.00 98 1025.0
20260509085745 48 324 0.0 0.0 0.00 0.00 0.00 98 1025.1
20260509085243 48 324 0.0 0.0 0.00 0.00 0.00 98 1025.0
20260509084739 48 324 0.0 0.0 0.00 0.00 0.00 97 1025.0
20260509084236 48 324 0.0 0.0 0.00 0.00 0.00 97 1025.0
20260509083734 49 323 0.0 0.0 0.00 0.00 0.00 96 1024.9
20260509083230 49 324 0.0 0.0 0.00 0.00 0.00 96 1024.9
20260509082727 49 324 0.0 0.0 0.00 0.00 0.00 96 1025.0
20260509082224 49 324 0.0 0.0 0.00 0.00 0.00 95 1024.9
20260509081720 50 324 0.0 0.0 0.00 0.00 0.00 94 1024.9
20260509081218 50 324 0.0 0.0 0.00 0.00 0.00 94 1024.9
20260509080716 50 324 0.0 0.0 0.00 0.00 0.00 94 1025.0
20260509080213 51 324 0.0 0.0 0.00 0.00 0.00 94 1025.0
20260509075711 51 325 0.0 0.0 0.00 0.00 0.00 93 1025.0
20260509075209 52 327 0.0 0.0 0.00 0.00 0.00 93 1025.0
20260509074705 52 327 0.0 0.0 0.00 0.00 0.00 92 1024.9
20260509074203 52 326 0.0 0.0 0.00 0.00 0.00 91 1024.7
20260509073659 52 333 0.0 0.0 0.00 0.00 0.00 91 1025.0
20260509073155 53 334 0.0 0.0 0.00 0.00 0.00 90 1024.8
20260509072652 53 315 0.0 0.0 0.00 0.00 0.00 90 1024.9
20260509072149 53 312 0.0 0.0 0.00 0.00 0.00 90 1024.8
20260509071645 53 327 0.0 0.0 0.00 0.00 0.00 89 1024.8
20260509071143 53 332 0.0 0.0 0.00 0.00 0.00 89 1024.8
20260509070640 53 330 0.0 0.0 0.00 0.00 0.00 89 1024.8
20260509070136 53 320 0.0 0.0 0.00 0.00 0.00 89 1024.9
20260509065632 53 319 0.0 0.0 0.00 0.00 0.00 88 1024.6
20260509065128 53 319 0.0 0.0 0.00 0.00 0.00 88 1024.9
20260509064625 53 319 0.0 0.0 0.00 0.00 0.00 88 1024.6
20260509064124 53 319 0.0 0.0 0.00 0.00 0.00 88 1024.8
20260509063620 53 319 0.0 0.0 0.00 0.00 0.00 87 1024.7
20260509063117 53 320 0.0 0.0 0.00 0.00 0.00 87 1024.8
20260509062614 53 316 0.0 0.0 0.00 0.00 0.00 86 1024.6
20260509062111 53 333 0.0 0.0 0.00 0.00 0.00 85 1024.9
20260509061608 53 339 0.0 0.0 0.00 0.00 0.00 86 1024.8
20260509061105 53 339 0.0 0.0 0.00 0.00 0.00 86 1024.8
20260509060603 54 339 0.0 0.0 0.00 0.00 0.00 86 1024.5
20260509060058 54 339 0.0 0.0 0.00 0.00 0.00 85 1024.8
20260509055554 54 339 0.0 0.0 0.00 0.00 0.00 83 1024.9
20260509055050 54 339 0.0 0.0 0.00 0.00 0.00 82 1024.7
20260509054547 54 345 0.0 0.0 0.00 0.00 0.00 81 1024.5
20260509054045 55 17 0.0 0.0 0.00 0.00 0.00 81 1024.6
20260509053543 55 304 0.0 0.0 0.00 0.00 0.00 76 1024.7
20260509053039 55 80 0.0 0.0 0.00 0.00 0.00 76 1024.7
20260509052538 55 325 0.0 0.0 0.00 0.00 0.00 80 1024.7
20260509052035 55 328 0.0 0.0 0.00 0.00 0.00 80 1024.6
20260509051533 55 317 0.0 0.0 0.00 0.00 0.00 80 1024.7
20260509051030 55 313 0.0 0.0 0.00 0.00 0.00 78 1024.6
20260509050527 55 317 0.0 0.0 0.00 0.00 0.00 78 1024.6
20260509050023 56 332 0.0 0.0 0.00 0.00 0.00 78 1024.8
20260509045520 56 346 0.0 0.0 0.00 0.00 0.00 78 1024.6
20260509045017 56 347 0.0 0.0 0.00 0.00 0.00 76 1024.6
20260509044515 57 74 0.0 0.0 0.00 0.00 0.00 73 1024.6
20260509044012 56 358 0.0 0.0 0.00 0.00 0.00 72 1024.5
20260509043508 56 345 0.0 0.0 0.00 0.00 0.00 73 1024.5
20260509043004 56 336 0.0 0.0 0.00 0.00 0.00 73 1024.4
20260509042500 56 349 0.0 0.0 0.00 0.00 0.00 73 1024.2
20260509041956 56 353 0.0 0.0 0.00 0.00 0.00 74 1024.4
20260509041453 56 335 0.0 0.0 0.00 0.00 0.00 74 1024.3
20260509040951 56 351 0.0 0.0 0.00 0.00 0.00 77 1024.1
20260509040449 56 307 0.0 0.0 0.00 0.00 0.00 75 1024.2
20260509035946 56 334 0.0 0.0 0.00 0.00 0.00 74 1024.3
20260509035442 56 345 0.0 0.0 0.00 0.00 0.00 74 1024.1
20260509034939 56 328 0.0 0.0 0.00 0.00 0.00 74 1024.0
20260509034437 56 159 0.0 0.0 0.00 0.00 0.00 77 1024.0
20260509033934 56 348 0.0 0.0 0.00 0.00 0.00 77 1023.8
20260509033431 57 1 0.0 0.0 0.00 0.00 0.00 74 1023.9
20260509032927 57 340 0.0 0.0 0.00 0.00 0.00 74 1023.8
20260509032425 57 171 0.0 0.0 0.00 0.00 0.00 73 1023.9
20260509031923 57 156 0.0 0.0 0.00 0.00 0.00 72 1023.8
20260509031420 57 320 0.0 0.0 0.00 0.00 0.00 72 1023.7
20260509030917 57 342 0.0 0.0 0.00 0.00 0.00 71 1023.6
20260509030415 57 342 0.0 0.0 0.00 0.00 0.00 71 1023.7
20260509025912 57 345 0.0 0.0 0.00 0.00 0.00 71 1023.5
20260509025408 57 354 0.0 0.0 0.00 0.00 0.00 71 1023.6
20260509024903 57 2 0.0 0.0 0.00 0.00 0.00 70 1023.5
20260509024359 58 317 0.0 0.0 0.00 0.00 0.00 72 1023.4
20260509023856 58 330 0.0 0.0 0.00 0.00 0.00 70 1023.4
20260509023354 58 228 0.0 0.0 0.00 0.00 0.00 70 1023.3
20260509022850 59 100 0.0 0.0 0.00 0.00 0.00 70 1023.3
20260509022347 59 231 0.0 0.0 0.00 0.00 0.00 68 1023.2
20260509021844 59 333 0.0 0.0 0.00 0.00 0.00 70 1023.4
20260509021341 59 341 0.0 0.0 0.00 0.00 0.00 69 1023.3
20260509020839 59 292 0.0 0.0 0.00 0.00 0.00 69 1023.2
20260509020337 59 165 0.0 0.0 0.00 0.00 0.00 69 1023.3
20260509015834 59 333 0.0 0.0 0.00 0.00 0.00 70 1023.5
20260509015332 59 326 0.0 0.0 0.00 0.00 0.00 69 1023.2
20260509014829 59 328 0.0 0.0 0.00 0.00 0.00 72 1023.3
20260509014326 59 354 0.0 0.0 0.00 0.00 0.00 70 1023.3
20260509013823 59 324 0.0 0.0 0.00 0.00 0.00 70 1023.1
20260509013319 59 336 0.0 0.0 0.00 0.00 0.00 74 1023.0
20260509012815 59 6 0.0 0.0 0.00 0.00 0.00 68 1023.3
20260509012312 60 339 0.0 0.0 0.00 0.00 0.00 69 1023.0
20260509011809 60 118 0.0 0.0 0.00 0.00 0.00 71 1023.0
20260509011306 60 322 0.0 0.0 0.00 0.00 0.00 69 1022.8
20260509010804 60 66 0.0 0.0 0.00 0.00 0.00 69 1022.9
20260509010301 60 23 0.0 0.0 0.00 0.00 0.00 70 1022.9
20260509005758 60 306 0.0 0.0 0.00 0.00 0.00 69 1023.0
20260509005256 60 178 1.0 2.0 0.00 0.00 0.00 68 1022.9
20260509004755 61 206 0.0 1.0 0.00 0.00 0.00 66 1023.3
20260509004252 61 314 0.0 0.0 0.00 0.00 0.00 67 1022.9
20260509003751 61 308 0.0 0.0 0.00 0.00 0.00 65 1022.7
20260509003248 61 166 2.0 3.0 0.00 0.00 0.00 65 1022.7
20260509002745 60 323 0.0 0.0 0.00 0.00 0.00 67 1022.9
20260509002243 61 332 0.0 0.0 0.00 0.00 0.00 67 1023.0
20260509001740 60 296 0.0 0.0 0.00 0.00 0.00 66 1022.9
20260509001235 61 342 0.0 0.0 0.00 0.00 0.00 63 1022.8
20260509000734 61 327 0.0 0.0 0.00 0.00 0.00 63 1023.1
20260509000231 61 271 0.0 0.0 0.00 0.00 0.00 63 1022.8
20260508235728 60 40 0.0 0.0 0.00 0.00 0.00 71 1022.9
20260508235224 60 3 0.0 0.0 0.00 0.00 0.00 71 1022.8
20260508234722 60 346 0.0 0.0 0.00 0.00 0.00 68 1022.8
20260508234218 61 358 0.0 0.0 0.00 0.00 0.00 69 1022.8
20260508233717 61 320 0.0 0.0 0.00 0.00 0.00 68 1022.8
20260508233215 61 1 0.0 0.0 0.00 0.00 0.00 67 1022.5
20260508232712 61 352 0.0 0.0 0.00 0.00 0.00 70 1022.6
20260508232208 62 348 0.0 0.0 0.00 0.00 0.00 65 1022.7
20260508231707 62 300 0.0 0.0 0.00 0.00 0.00 65 1022.5
20260508231203 61 328 0.0 0.0 0.00 0.00 0.00 65 1022.5
20260508230700 62 0 0.0 1.0 0.00 0.00 0.00 66 1022.5
20260508230156 61 311 0.0 0.0 0.00 0.00 0.00 70 1022.6
20260508225654 60 328 0.0 0.0 0.00 0.00 0.00 71 1022.6
20260508225150 61 350 0.0 0.0 0.00 0.00 0.00 67 1022.6
20260508224648 61 347 1.0 3.0 0.00 0.00 0.00 67 1022.5
20260508224145 62 49 0.0 0.0 0.00 0.00 0.00 66 1022.6
20260508223643 61 356 2.0 5.0 0.00 0.00 0.00 67 1022.6
20260508223140 60 23 0.0 0.0 0.00 0.00 0.00 69 1022.6
20260508222637 61 319 0.0 0.0 0.00 0.00 0.00 67 1022.3
20260508222134 60 342 0.0 0.0 0.00 0.00 0.00 69 1022.4
20260508221630 61 322 0.0 0.0 0.00 0.00 0.00 69 1022.4
20260508221126 62 18 0.0 0.0 0.00 0.00 0.00 64 1022.4
20260508220623 63 357 0.0 0.0 0.00 0.00 0.00 63 1022.6
20260508220120 62 329 0.0 0.0 0.00 0.00 0.00 65 1022.4
20260508215617 62 342 0.0 0.0 0.00 0.00 0.00 64 1022.4
20260508215113 61 305 0.0 0.0 0.00 0.00 0.00 59 1022.4
20260508214610 62 323 0.0 0.0 0.00 0.00 0.00 59 1022.5
20260508214107 63 231 4.0 6.0 0.00 0.00 0.00 59 1022.6
20260508213604 61 307 0.0 0.0 0.00 0.00 0.00 61 1022.3
20260508213100 63 282 0.0 0.0 0.00 0.00 0.00 64 1022.3
20260508212557 64 304 0.0 2.0 0.00 0.00 0.00 61 1022.1
20260508212053 63 354 0.0 0.0 0.00 0.00 0.00 61 1022.2
20260508211548 62 237 0.0 0.0 0.00 0.00 0.00 70 1022.3
20260508211045 62 319 0.0 0.0 0.00 0.00 0.00 67 1022.2
20260508210542 62 344 0.0 0.0 0.00 0.00 0.00 64 1022.3
20260508210039 62 315 0.0 0.0 0.00 0.00 0.00 62 1022.1
20260508205536 63 294 0.0 0.0 0.00 0.00 0.00 65 1022.2
20260508205032 62 291 0.0 0.0 0.00 0.00 0.00 70 1022.1
20260508204529 62 345 3.0 5.0 0.00 0.00 0.00 65 1021.8
20260508204025 64 174 2.0 3.0 0.00 0.00 0.00 62 1022.0
20260508203521 63 325 1.0 3.0 0.00 0.00 0.00 64 1021.9
20260508203017 62 332 0.0 1.0 0.00 0.00 0.00 65 1021.9
20260508202514 62 335 0.0 0.0 0.00 0.00 0.00 67 1021.7
20260508202011 63 354 0.0 0.0 0.00 0.00 0.00 64 1021.6
20260508201508 62 245 0.0 0.0 0.00 0.00 0.00 66 1021.9
20260508201005 61 223 0.0 0.0 0.00 0.00 0.00 66 1021.7
20260508200502 62 27 0.0 1.0 0.00 0.00 0.00 69 1021.7
20260508195956 62 163 0.0 0.0 0.00 0.00 0.00 70 1021.7
20260508195454 62 332 0.0 0.0 0.00 0.00 0.00 67 1021.6
20260508194950 63 187 1.0 2.0 0.00 0.00 0.00 67 1021.6
20260508194448 61 146 1.0 3.0 0.00 0.00 0.00 69 1021.4
20260508193944 62 193 0.0 2.0 0.00 0.00 0.00 68 1021.5
20260508193441 61 84 0.0 2.0 0.00 0.00 0.00 75 1021.6
20260508192938 60 192 0.0 1.0 0.00 0.00 0.00 73 1021.5
20260508192434 60 170 1.0 1.0 0.00 0.00 0.00 74 1021.5
20260508191931 60 299 0.0 0.0 0.00 0.00 0.00 75 1021.5
20260508191429 59 102 1.0 2.0 0.00 0.00 0.00 74 1021.5
20260508190925 59 322 0.0 0.0 0.00 0.00 0.00 76 1021.6
20260508190423 58 307 0.0 0.0 0.00 0.00 0.00 81 1021.4
20260508185918 58 351 0.0 0.0 0.00 0.00 0.00 79 1021.7
20260508185416 58 172 0.0 2.0 0.00 0.00 0.00 80 1021.9
20260508184914 57 31 3.0 6.0 0.00 0.00 0.00 79 1021.5
20260508184411 58 335 0.0 0.0 0.00 0.00 0.00 80 1021.4
20260508183907 58 94 0.0 0.0 0.00 0.00 0.00 81 1021.1
20260508183404 58 91 1.0 1.0 0.00 0.00 0.00 80 1021.2
20260508182859 58 162 1.0 5.0 0.00 0.00 0.00 80 1021.0
20260508182357 58 102 0.0 0.0 0.00 0.00 0.00 81 1021.0
20260508181852 58 318 0.0 0.0 0.00 0.00 0.00 81 1021.0
20260508181349 59 10 0.0 0.0 0.00 0.00 0.00 77 1021.2
20260508180846 59 127 0.0 2.0 0.00 0.00 0.00 77 1021.0
20260508180343 60 350 0.0 0.0 0.00 0.00 0.00 78 1020.7
20260508175839 61 159 0.0 0.0 0.00 0.00 0.00 78 1020.9
20260508175335 59 321 0.0 0.0 0.00 0.00 0.00 76 1020.8
20260508174834 59 310 0.0 0.0 0.00 0.00 0.00 77 1020.5
20260508174331 59 292 0.0 0.0 0.00 0.00 0.00 79 1020.8
20260508173827 58 189 0.0 0.0 0.00 0.00 0.00 80 1020.6
20260508173325 58 334 0.0 0.0 0.00 0.00 0.00 80 1020.6
20260508172820 58 241 0.0 0.0 0.00 0.00 0.00 80 1020.5
20260508172317 59 4 0.0 0.0 0.00 0.00 0.00 81 1020.6
20260508171814 58 347 0.0 0.0 0.00 0.00 0.00 81 1020.4
20260508171310 58 33 5.0 6.0 0.00 0.00 0.00 79 1020.2
20260508170807 58 160 0.0 1.0 0.00 0.00 0.00 80 1020.1
20260508170306 59 199 4.0 7.0 0.00 0.00 0.00 79 1020.2
20260508165801 57 336 0.0 0.0 0.00 0.00 0.00 81 1020.2
20260508165259 56 272 0.0 0.0 0.00 0.00 0.00 83 1020.2
20260508164754 57 20 0.0 0.0 0.00 0.00 0.00 84 1020.5
20260508164252 57 161 3.0 5.0 0.00 0.00 0.00 81 1020.2
20260508163750 57 162 0.0 0.0 0.00 0.00 0.00 82 1020.3
20260508163247 57 353 0.0 0.0 0.00 0.00 0.00 81 1020.3
20260508162743 57 137 0.0 0.0 0.00 0.00 0.00 82 1020.2
20260508162240 56 275 0.0 0.0 0.00 0.00 0.00 84 1020.2
20260508161737 56 103 1.0 3.0 0.00 0.00 0.00 84 1020.3
20260508161234 55 228 0.0 0.0 0.00 0.00 0.00 85 1020.0
20260508160732 55 290 0.0 0.0 0.00 0.00 0.00 85 1020.1
20260508160230 55 354 0.0 0.0 0.00 0.00 0.00 87 1020.2
20260508155726 54 29 0.0 0.0 0.00 0.00 0.00 88 1020.3
20260508155223 54 356 0.0 0.0 0.00 0.00 0.00 89 1020.3
20260508154720 54 136 0.0 0.0 0.00 0.00 0.00 89 1020.4
20260508154217 54 301 0.0 0.0 0.00 0.00 0.00 89 1020.5
20260508153714 54 338 0.0 0.0 0.00 0.00 0.00 88 1020.3
20260508153211 54 292 0.0 0.0 0.00 0.00 0.00 88 1020.3
20260508152708 54 313 0.0 0.0 0.00 0.00 0.00 89 1020.3
20260508152203 54 306 0.0 0.0 0.00 0.00 0.00 89 1020.3
20260508151700 54 323 0.0 0.0 0.00 0.00 0.00 88 1020.2
20260508151157 54 151 1.0 2.0 0.00 0.00 0.00 89 1019.9
20260508150654 54 283 0.0 0.0 0.00 0.00 0.00 89 1019.8
20260508150150 53 229 0.0 0.0 0.00 0.00 0.00 89 1020.1
20260508145646 53 227 2.0 5.0 0.00 0.00 0.00 90 1019.9
20260508145142 53 118 1.0 5.0 0.00 0.00 0.00 90 1019.7
20260508144640 53 148 0.0 1.0 0.00 0.00 0.00 90 1019.7
20260508144138 53 120 0.0 0.0 0.00 0.00 0.00 91 1019.4
20260508143635 53 256 0.0 0.0 0.00 0.00 0.00 92 1019.6
20260508143132 53 89 0.0 0.0 0.00 0.00 0.00 92 1019.4
20260508142628 53 301 0.0 0.0 0.00 0.00 0.00 92 1019.2
20260508142125 53 154 0.0 0.0 0.00 0.00 0.00 92 1019.3
20260508141622 53 201 0.0 0.0 0.00 0.00 0.00 94 1019.4
20260508141119 53 287 0.0 0.0 0.00 0.00 0.00 94 1019.4
20260508140616 52 287 0.0 0.0 0.00 0.00 0.00 94 1019.2
20260508140113 52 186 0.0 0.0 0.00 0.00 0.00 95 1019.1
20260508135608 52 211 0.0 0.0 0.00 0.00 0.00 98 1019.1
20260508135105 51 323 0.0 0.0 0.00 0.00 0.00 99 1019.0
20260508134602 51 303 0.0 0.0 0.00 0.00 0.00 99 1019.0
20260508134059 51 338 0.0 0.0 0.00 0.00 0.00 99 1019.1
20260508133555 51 332 0.0 0.0 0.00 0.00 0.00 99 1019.2
20260508133053 51 334 0.0 0.0 0.00 0.00 0.00 99 1019.1
20260508132550 51 316 0.0 0.0 0.00 0.00 0.00 99 1019.0
20260508132047 51 317 0.0 0.0 0.00 0.00 0.00 99 1018.8
20260508131542 51 300 0.0 0.0 0.00 0.00 0.00 99 1018.8
20260508131039 51 316 0.0 0.0 0.00 0.00 0.00 99 1018.9
20260508130537 51 308 0.0 0.0 0.00 0.00 0.00 99 1018.9
20260508130033 51 308 0.0 0.0 0.00 0.00 0.00 99 1018.8
20260508125529 51 253 0.0 0.0 0.00 0.00 0.00 99 1018.7
20260508125027 51 294 0.0 0.0 0.00 0.00 0.00 99 1018.7
20260508124524 50 308 0.0 0.0 0.00 0.00 0.00 99 1018.9